Regional Weather Roundup
Issued by NWS

Home | Current Version | Previous Version | Text Only | Print | Product List | Glossary On
Versions: 1 2 3 4 5 6 7 8 9 10 11 12 13 14 15 16 17 18 19 20 21 22 23 24 25 26 27 28 29 30 31 32 33 34 35 36 37 38 39 40 41 42 43 44 45 46 47 48 49 50
000
ASUS43 KFSD 262102
RWRSD

WEATHER ROUNDUP FOR SOUTH DAKOTA
NATIONAL WEATHER SERVICE SIOUX FALLS SD
400 PM CDT FRI AUG 26 2016

NOTE: "FAIR" INDICATES FEW OR NO CLOUDS BELOW 12,000 FEET WITH NO
SIGNIFICANT WEATHER AND/OR OBSTRUCTIONS TO VISIBILITY.


SDZ001>005-009-010-012>017-262200-
NORTHWEST AND NORTH CENTRAL SOUTH DAKOTA

CITY           SKY/WX    TMP DP  RH WIND       PRES   REMARKS
BUFFALO          N/A     67  51  56 VRB6      29.97F
FAITH            N/A     63  56  78 S12       30.07F
MOBRIDGE       CLOUDY    64  51  62 S14       30.07F
$$

SDZ012>016-024>037-041>051-057-063-072>074-262200-
SOUTHWEST AND SOUTH CENTRAL SOUTH DAKOTA

CITY           SKY/WX    TMP DP  RH WIND       PRES   REMARKS
RAPID CTY ARPT MOSUNNY   66  55  67 S10G20    30.05F
PIERRE         CLOUDY    61  54  77 E7        30.08F
CUSTER         CLOUDY    61  50  67 SE6       30.10F
ELLSWORTH AFB  MOSUNNY   66  55  67 S16G22      N/A
PHILIP         CLOUDY    64  59  83 SE13      30.06F
PINE RIDGE     PTSUNNY   67  59  75 S13       30.06F
WINNER         LGT RAIN  67  55  65 NE8       30.11F
$$

SDZ004>011-016>023-039-040-262200-
NORTHEAST SOUTH DAKOTA

CITY           SKY/WX    TMP DP  RH WIND       PRES   REMARKS
ABERDEEN       LGT RAIN  62  56  80 W6        30.12S
WATERTOWN      CLOUDY    70  52  52 S5        30.13F
BROOKINGS      PTSUNNY   70  53  54 S6        30.13F
$$

SDZ017-020-022-023-036>040-048>070-262200-
SOUTHEAST SOUTH DAKOTA

CITY           SKY/WX    TMP DP  RH WIND       PRES   REMARKS
SIOUX FALLS    CLOUDY    75  54  47 E5        30.12F
HURON          CLOUDY    68  53  58 N7        30.12F
CHAMBERLAIN    CLOUDY    71  56  59 NE8       30.10F
MITCHELL       CLOUDY    74  56  53 CALM      30.11F
YANKTON        CLOUDY    73  57  56 E7        30.09F
$$

ABBREVIATIONS USED IN REMARKS
   TC - TEMPERATURE IN CELSIUS
  WCI - WIND CHILL INDEX
   HX - HEAT INDEX
  VSB - VISIBILITY




USA.gov is the U.S. government's official web portal to all federal, state and local government web resources and services.